Tracking 25934 objects as of 10-Aug-2022
HD Live streaming from Space Station
objects crossing your sky now

IRIDIUM 33 DEB

Track IRIDIUM 33 DEB now!
10-day predictions


NORAD ID: 36025
Int'l Code: 1997-051VG
Perigee: 639.9 km
Apogee: 684.6 km
Inclination: 86.5 °
Period: 97.8 minutes
Semi major axis: 7033 km
RCS: 0.0093 m2 (small)
Launch date: September 14, 1997
Source: United States (US)
Launch site: TYURATAM MISSILE AND SPACE COMPLEX (TTMTR)

Note: This is SATELLITE DEBRIS
aabbcc
Your satellite tracking list
Your tracking list is empty




NASA's NSSDC Master Catalog

Two Line Element Set (TLE):
1 36025U 97051VG  22214.98724834  .00011890  00000-0  18805-2 0  9997
2 36025  86.5434 304.8183 0031841  30.3921 329.9133 14.71868004569032
Source of the keplerian elements: AFSPC